SES-4

Last updated on Sat Aug 15 2026 00:02:58 GMT+0000 (Coordinated Universal Time)

1 38087U 12007A 26226.34977377 -.00000184 00000+0 00000+0 0 9993 2 38087 0.0257 41.1254 0002482 108.7075 276.8576 1.00270752 52803
UTC large
Height (km)
Speed (km/s)
/
Latitude / Longitude
Inclination (degrees)
Orbital Period (minutes)
Azimuth
Elevation
Range (km)
Doppler Factor

Next 0 passes for location: London (51.5072 / 0.1276)

No passes found over London.
SES-4